GW5620 Weather Reports


time (UTC)temp
C
wind
direction
speed
KPH
gust
KPH
rain 1hr
cm
rain 24hr
cm
rain mn
cm
humidity
%
barometer
mb
20260506034505 20 194 0.0 4.8 0.00 0.00 0.00 44 1007.7
20260506034005 20 175 0.0 4.8 0.00 0.00 0.00 44 1007.7
20260506033504 20 202 0.0 4.8 0.00 0.00 0.00 44 1007.6
20260506032004 20 190 0.0 4.8 0.00 0.00 0.00 43 1007.6
20260506031004 20 197 0.0 0.0 0.00 0.00 0.00 42 1007.5
20260506030505 20 197 0.0 3.2 0.00 0.00 0.00 41 1007.5
20260506030004 20 192 0.0 0.0 0.00 0.00 0.00 41 1007.6
20260506024505 21 182 0.0 0.0 0.00 0.00 0.00 40 1007.7
20260506024005 21 189 0.0 3.2 0.00 0.00 0.00 39 1007.6
20260506023005 21 185 0.0 0.0 0.00 0.00 0.00 39 1007.6
20260506022504 21 185 0.0 0.0 0.00 0.00 0.00 38 1007.6
20260506022004 21 207 0.0 1.6 0.00 0.00 0.00 38 1007.6
20260506021504 21 184 0.0 4.8 0.00 0.00 0.00 38 1007.6
20260506021004 21 231 0.0 8.0 0.00 0.00 0.00 37 1007.7
20260506020006 21 225 0.0 0.0 0.00 0.00 0.00 37 1007.6
20260506015505 21 224 0.0 0.0 0.00 0.00 0.00 37 1007.7
20260506015004 21 242 0.0 0.0 0.00 0.00 0.00 37 1007.7
20260506014504 21 244 0.0 0.0 0.00 0.00 0.00 37 1007.6
20260506014004 21 236 0.0 0.0 0.00 0.00 0.00 37 1007.5
20260506013504 21 190 0.0 0.0 0.00 0.00 0.00 37 1007.5
20260506012504 21 190 0.0 0.0 0.00 0.00 0.00 37 1007.4
20260506011504 21 195 0.0 0.0 0.00 0.00 0.00 37 1007.3
20260506011005 21 205 0.0 0.0 0.00 0.00 0.00 36 1007.2
20260506010504 22 176 0.0 0.0 0.00 0.00 0.00 36 1007.2
20260506010004 22 205 0.0 0.0 0.00 0.00 0.00 37 1007.1
20260506005004 22 205 0.0 0.0 0.00 0.00 0.00 37 1007.0
20260506004504 22 194 0.0 1.6 0.00 0.00 0.00 37 1007.0
20260506004004 22 196 0.0 1.6 0.00 0.00 0.00 38 1006.9
20260506003505 22 198 0.0 0.0 0.00 0.00 0.00 37 1006.8
20260506003004 22 221 0.0 0.0 0.00 0.00 0.00 38 1006.7
20260506002503 22 195 0.0 1.6 0.00 0.00 0.00 38 1006.6
20260506002004 22 193 0.0 0.0 0.00 0.00 0.00 37 1006.6
20260506001504 23 193 0.0 0.0 0.00 0.00 0.00 37 1006.5
20260506001005 23 201 0.0 8.0 0.00 0.00 0.00 37 1006.5
20260506000505 23 185 0.0 0.0 0.00 0.00 0.00 37 1006.5
20260505235504 23 186 0.0 4.8 0.00 0.00 0.00 37 1006.4
20260505234504 23 189 1.6 9.7 0.00 0.00 0.00 36 1006.3
20260505234009 23 201 0.0 4.8 0.00 0.00 0.00 36 1006.3
20260505233509 24 180 1.6 9.7 0.00 0.00 0.00 36 1006.3
20260505233008 24 219 1.6 8.0 0.00 0.00 0.00 36 1006.4
20260505232508 24 191 3.2 29.0 0.00 0.00 0.00 36 1006.4
20260505232008 24 189 0.0 8.0 0.00 0.00 0.00 36 1006.3
20260505231509 24 190 4.8 14.5 0.00 0.00 0.00 36 1006.2
20260505231008 24 226 3.2 12.9 0.00 0.00 0.00 36 1006.3
20260505230509 24 200 1.6 9.7 0.00 0.00 0.00 36 1006.2
20260505230009 25 197 1.6 12.9 0.00 0.00 0.00 36 1006.2
20260505225008 25 191 1.6 14.5 0.00 0.00 0.00 36 1006.2
20260505224508 25 248 1.6 14.5 0.00 0.00 0.00 36 1006.2
20260505223509 25 204 0.0 9.7 0.00 0.00 0.00 37 1006.1
20260505223009 25 202 1.6 12.9 0.00 0.00 0.00 36 1006.2
20260505222509 25 207 1.6 16.1 0.00 0.00 0.00 35 1006.2
20260505222008 25 193 1.6 16.1 0.00 0.00 0.00 35 1006.2
20260505221508 25 199 3.2 16.1 0.00 0.00 0.00 34 1006.2
20260505221008 25 194 3.2 20.9 0.00 0.00 0.00 34 1006.2
20260505220508 25 228 3.2 22.5 0.00 0.00 0.00 34 1006.3
20260505215508 26 215 4.8 19.3 0.00 0.00 0.00 34 1006.3
20260505215009 26 228 1.6 20.9 0.00 0.00 0.00 35 1006.3
20260505214508 26 218 4.8 24.1 0.00 0.00 0.00 33 1006.2
20260505214009 26 212 3.2 25.7 0.00 0.00 0.00 29 1006.2
20260505213508 27 197 4.8 22.5 0.00 0.00 0.00 28 1006.2
20260505212508 27 216 3.2 22.5 0.00 0.00 0.00 31 1006.1
20260505212008 27 188 1.6 14.5 0.00 0.00 0.00 32 1006.0
20260505211508 27 216 8.0 22.5 0.00 0.00 0.00 30 1006.0
20260505211009 27 203 4.8 19.3 0.00 0.00 0.00 29 1006.0
20260505210509 27 224 3.2 16.1 0.00 0.00 0.00 31 1006.0
20260505210008 27 188 1.6 20.9 0.00 0.00 0.00 31 1006.0
20260505205509 27 205 4.8 14.5 0.00 0.00 0.00 30 1006.0
20260505205008 27 219 6.4 19.3 0.00 0.00 0.00 30 1006.1
20260505203509 27 189 4.8 32.2 0.00 0.00 0.00 30 1006.0
20260505203009 27 234 4.8 20.9 0.00 0.00 0.00 30 1006.1
20260505202508 27 119 0.0 8.0 0.00 0.00 0.00 31 1006.1
20260505202008 27 218 3.2 19.3 0.00 0.00 0.00 30 1006.1
20260505201508 27 239 8.0 24.1 0.00 0.00 0.00 30 1006.2
20260505200508 27 237 1.6 11.3 0.00 0.00 0.00 33 1006.2
20260505200008 27 243 3.2 19.3 0.00 0.00 0.00 35 1006.3
20260505195008 27 180 4.8 24.1 0.00 0.00 0.00 34 1006.4
20260505194508 27 191 3.2 19.3 0.00 0.00 0.00 36 1006.4
20260505194008 27 231 6.4 19.3 0.00 0.00 0.00 36 1006.4
20260505192508 27 219 6.4 22.5 0.00 0.00 0.00 33 1006.7
20260505192008 27 200 8.0 24.1 0.00 0.00 0.00 33 1006.8
20260505191508 27 201 3.2 19.3 0.00 0.00 0.00 35 1006.9
20260505191009 27 208 3.2 20.9 0.00 0.00 0.00 34 1006.9
20260505190008 27 239 3.2 19.3 0.00 0.00 0.00 36 1007.0
20260505185508 27 239 6.4 20.9 0.00 0.00 0.00 35 1007.1
20260505185008 27 204 8.0 25.7 0.00 0.00 0.00 36 1007.2
20260505184508 26 223 9.7 27.4 0.00 0.00 0.00 36 1007.2
20260505183508 27 178 4.8 20.9 0.00 0.00 0.00 34 1007.2
20260505183008 27 188 1.6 19.3 0.00 0.00 0.00 37 1007.4
20260505182508 27 228 6.4 19.3 0.00 0.00 0.00 35 1007.4
20260505182008 27 179 1.6 12.9 0.00 0.00 0.00 37 1007.4
20260505181507 27 209 3.2 19.3 0.00 0.00 0.00 36 1007.5
20260505180509 27 210 3.2 19.3 0.00 0.00 0.00 36 1007.5
20260505180008 27 225 8.0 22.5 0.00 0.00 0.00 35 1007.7
20260505175508 27 199 4.8 19.3 0.00 0.00 0.00 37 1007.7
20260505175008 27 226 8.0 29.0 0.00 0.00 0.00 36 1007.7
20260505174507 27 207 0.0 16.1 0.00 0.00 0.00 37 1007.7
20260505174007 27 211 6.4 19.3 0.00 0.00 0.00 37 1007.8
20260505173508 26 213 4.8 20.9 0.00 0.00 0.00 38 1007.8
20260505173008 26 245 4.8 27.4 0.00 0.00 0.00 37 1007.7
20260505172508 26 223 3.2 16.1 0.00 0.00 0.00 39 1007.7
20260505172008 26 187 4.8 24.1 0.00 0.00 0.00 37 1007.8
20260505171508 26 213 4.8 24.1 0.00 0.00 0.00 39 1007.9
20260505171008 26 216 4.8 27.4 0.00 0.00 0.00 40 1008.1
20260505170507 26 213 1.6 20.9 0.00 0.00 0.00 38 1008.1
20260505170007 26 239 4.8 20.9 0.00 0.00 0.00 39 1008.2
20260505165007 26 243 1.6 16.1 0.00 0.00 0.00 39 1008.3
20260505164008 26 239 1.6 9.7 0.00 0.00 0.00 39 1008.5
20260505163009 26 203 3.2 20.9 0.00 0.00 0.00 40 1008.6
20260505162507 26 211 1.6 19.3 0.00 0.00 0.00 40 1008.7
20260505162007 25 243 0.0 12.9 0.00 0.00 0.00 42 1008.8
20260505161507 25 241 8.0 24.1 0.00 0.00 0.00 40 1009.0
20260505160507 25 238 4.8 19.3 0.00 0.00 0.00 40 1009.1
20260505152507 24 238 1.6 22.5 0.00 0.00 0.00 44 1009.2
20260505152007 24 213 1.6 24.1 0.00 0.00 0.00 44 1009.2
20260505151507 24 237 9.7 24.1 0.00 0.00 0.00 42 1009.3
20260505150508 24 239 3.2 20.9 0.00 0.00 0.00 45 1009.3
20260505140507 22 241 3.2 12.9 0.00 0.00 0.00 49 1009.4
20260505124506 19 239 1.6 14.5 0.00 0.00 0.00 56 1010.2
20260505124006 18 233 1.6 11.3 0.00 0.00 0.00 57 1010.2
20260505123507 18 239 1.6 12.9 0.00 0.00 0.00 56 1010.3
20260505123007 18 211 0.0 3.2 0.00 0.00 0.00 57 1010.3
20260505122507 18 237 1.6 14.5 0.00 0.00 0.00 57 1010.4
20260505122006 18 237 0.0 4.8 0.00 0.00 0.00 58 1010.5
20260505121506 18 225 0.0 19.3 0.00 0.00 0.00 59 1010.4
20260505120507 17 237 0.0 4.8 0.00 0.00 0.00 59 1010.5
20260505120006 17 239 0.0 1.6 0.00 0.00 0.00 61 1010.5
20260505115508 17 222 0.0 8.0 0.00 0.00 0.00 61 1010.4
20260505115006 17 236 0.0 1.6 0.00 0.00 0.00 63 1010.3
20260505114506 17 251 0.0 0.0 0.00 0.00 0.00 63 1010.3
20260505114006 16 296 0.0 3.2 0.00 0.00 0.00 64 1010.3
20260505113507 16 251 0.0 0.0 0.00 0.00 0.00 65 1010.2
20260505112506 15 229 0.0 0.0 0.00 0.00 0.00 67 1010.1
20260505112006 15 229 0.0 0.0 0.00 0.00 0.00 67 1010.0
20260505111507 15 229 0.0 1.6 0.00 0.00 0.00 67 1010.0
20260505111007 15 262 0.0 0.0 0.00 0.00 0.00 67 1010.0
20260505110507 15 270 0.0 0.0 0.00 0.00 0.00 67 1009.8
20260505101505 15 275 0.0 0.0 0.00 0.00 0.00 68 1009.3
20260505101006 15 275 0.0 0.0 0.00 0.00 0.00 69 1009.3
20260505100507 14 282 0.0 1.6 0.00 0.00 0.00 70 1009.3
20260505100006 14 262 0.0 1.6 0.00 0.00 0.00 71 1009.2
20260505095506 14 292 0.0 0.0 0.00 0.00 0.00 71 1009.2
20260505095006 13 292 0.0 0.0 0.00 0.00 0.00 72 1009.3
20260505094505 13 294 0.0 0.0 0.00 0.00 0.00 73 1009.2
20260505094006 13 294 0.0 0.0 0.00 0.00 0.00 74 1009.1
20260505093507 13 292 0.0 1.6 0.00 0.00 0.00 74 1009.1
20260505093007 13 291 0.0 0.0 0.00 0.00 0.00 75 1009.1
20260505092505 13 292 0.0 0.0 0.00 0.00 0.00 76 1009.1
20260505092005 13 292 0.0 0.0 0.00 0.00 0.00 77 1009.1
20260505091505 13 292 0.0 0.0 0.00 0.00 0.00 78 1009.1
20260505091005 12 291 0.0 0.0 0.00 0.00 0.00 78 1009.2
20260505090506 12 292 0.0 0.0 0.00 0.00 0.00 79 1009.1
20260505090006 12 292 0.0 0.0 0.00 0.00 0.00 80 1009.0
20260505085506 12 291 0.0 0.0 0.00 0.00 0.00 81 1009.0
20260505085006 12 291 0.0 0.0 0.00 0.00 0.00 81 1009.1
20260505083505 12 290 0.0 0.0 0.00 0.00 0.00 82 1009.0
20260505082506 12 278 0.0 0.0 0.00 0.00 0.00 82 1008.9
20260505082005 12 276 0.0 0.0 0.00 0.00 0.00 83 1008.9
20260505081505 12 276 0.0 0.0 0.00 0.00 0.00 83 1008.9
20260505081006 12 276 0.0 0.0 0.00 0.00 0.00 82 1008.9
20260505080506 12 275 0.0 0.0 0.00 0.00 0.00 81 1008.9
20260505080005 12 275 0.0 0.0 0.00 0.00 0.00 81 1008.9
20260505075006 12 275 0.0 0.0 0.00 0.00 0.00 81 1008.9
20260505074506 12 275 0.0 0.0 0.00 0.00 0.00 80 1008.8
20260505074006 12 275 0.0 0.0 0.00 0.00 0.00 80 1008.8
20260505073505 12 275 0.0 0.0 0.00 0.00 0.00 79 1008.7
20260505073006 12 275 0.0 0.0 0.00 0.00 0.00 79 1008.7
20260505072506 12 275 0.0 0.0 0.00 0.00 0.00 79 1008.6
20260505072005 13 275 0.0 0.0 0.00 0.00 0.00 79 1008.7
20260505071505 13 275 0.0 0.0 0.00 0.00 0.00 78 1008.7
20260505071005 13 274 0.0 0.0 0.00 0.00 0.00 78 1008.6
20260505070506 13 274 0.0 0.0 0.00 0.00 0.00 78 1008.6
20260505070005 13 274 0.0 0.0 0.00 0.00 0.00 77 1008.6
20260505065505 13 269 0.0 0.0 0.00 0.00 0.00 77 1008.7
20260505065005 13 269 0.0 0.0 0.00 0.00 0.00 77 1008.7
20260505064505 13 269 0.0 0.0 0.00 0.00 0.00 76 1008.7
20260505064006 13 269 0.0 0.0 0.00 0.00 0.00 76 1008.7
20260505063505 14 269 0.0 0.0 0.00 0.00 0.00 75 1008.8
20260505063005 14 269 0.0 0.0 0.00 0.00 0.00 74 1008.8
20260505062506 15 247 0.0 0.0 0.00 0.00 0.00 73 1008.8
20260505062005 15 247 0.0 0.0 0.00 0.00 0.00 72 1008.8
20260505061505 15 247 0.0 0.0 0.00 0.00 0.00 71 1008.9
20260505061005 15 246 0.0 0.0 0.00 0.00 0.00 69 1008.9
20260505060505 15 245 0.0 0.0 0.00 0.00 0.00 67 1009.0
20260505060006 16 245 0.0 0.0 0.00 0.00 0.00 67 1009.0
20260505055505 16 245 0.0 0.0 0.00 0.00 0.00 66 1009.0
20260505054505 16 245 0.0 0.0 0.00 0.00 0.00 65 1009.0
20260505054006 17 244 0.0 0.0 0.00 0.00 0.00 63 1009.0
20260505053505 17 244 0.0 0.0 0.00 0.00 0.00 62 1009.0
20260505052005 17 244 0.0 1.6 0.00 0.00 0.00 62 1009.0
20260505051505 17 244 0.0 0.0 0.00 0.00 0.00 61 1009.0
20260505051005 17 245 0.0 0.0 0.00 0.00 0.00 61 1009.0
20260505050505 17 245 0.0 0.0 0.00 0.00 0.00 61 1009.0
20260505041505 17 234 0.0 0.0 0.00 0.00 0.00 60 1008.7
20260505041004 17 234 0.0 0.0 0.00 0.00 0.00 59 1008.7
20260505040506 17 236 0.0 0.0 0.00 0.00 0.00 59 1008.7
20260505040005 17 238 0.0 0.0 0.00 0.00 0.00 58 1008.7
20260505035505 17 237 0.0 0.0 0.00 0.00 0.00 58 1008.7
20260505035005 17 225 0.0 1.6 0.00 0.00 0.00 58 1008.7